{"data":{"norad_id":60131,"intl_designator":"2024-118U","name":"STARLINK-31785","alt_names":[],"object_type":"PAYLOAD","status":"ACTIVE","operator":null,"country":"US","launch_date":"2024-06-24","launch_site_code":"AFWTR","launch_vehicle":null,"mission":null,"orbit_class":"UNKNOWN","rcs_meters":null,"size_class":null,"mass_kg":null,"dimensions":null,"purposes":["comms"],"wikipedia_slug":null,"has_3d_model":false,"image_url":null,"decayed_at":null,"tle_current":{"epoch":"2026-05-25T01:22:25.542912Z","epoch_age_seconds":69858,"freshness":"FRESH","line1":"1 60131U 24118U   26145.05724008  .00000494  00000+0  27666-4 0  9998","line2":"2 60131  53.1613  31.6418 0001124  94.8259 265.2871 15.31703611107399","mean_motion":15.31703611,"eccentricity":0.0001124,"inclination_deg":53.1613,"raan_deg":31.6418,"arg_perigee_deg":94.8259,"mean_anomaly_deg":265.2871,"bstar":2.7666e-5,"rev_number":10739,"period_min":94.012966324462,"perigee_km":469.95941847933,"apogee_km":471.49904360806,"semimajor_km":6848.8662310437,"source":"CELESTRAK","updated_at":"2026-05-25T13:38:19.169526Z"}}}